Location: Ambatotampy
(18.8181°S, 47.6186°E)
Time: 23:46:12
(UTC+00:00)

Cosmos 1503 Rocket - Pass Details

Date: 21 January 2021
Orbit: 752 x 791 km, 74.0° (Epoch: 24 February)

Event Time Altitude Azimuth Distance (km) Brightness Sun altitude
Exits shadow 01:20:08 12° 344° (NNW) 2,118 5.9 -15.6°
Maximum altitude 01:24:53 83° 256° (WSW) 770 3.9 -14.6°
Drops below altitude 10° 01:30:05 10° 168° (SSE) 2,293 7.0 -13.5°
Sets 01:32:28 0° 167° (SSE) 3,221 7.8 -13.0°
